Location: Shepherdstown, WV
(39.4326°N, 77.8042°W)
Time: 23:36:25
(UTC-04:00)

S-56A Canister/Altair - Pass Details

Date: 27 July 2021
Orbit: 632 x 2500 km, 38.9° (Epoch: 27 September)

Event Time Altitude Azimuth Distance (km) Brightness Sun altitude
Rises 21:50:11 0° 284° (WNW) 6,168 13.4 -14.1°
Reaches altitude 10° 21:54:23 10° 282° (WNW) 5,089 12.7 -14.8°
Maximum altitude 22:08:38 69° 204° (SSW) 2,141 9.6 -16.8°
Enters shadow 22:16:03 24° 127° (SE) 3,022 9.9 -17.8°
